Time,TemperatureF,DewpointF,PressureIn,WindDirection,WindDirectionDegrees,WindSpeedMPH,WindSpeedGustMPH,Humidity,HourlyPrecipIn,Conditions,Clouds,dailyrainin,SolarRadiationWatts/m^2,SoftwareType,DateUTC
2013-05-23 00:06:00,62.7,61.0,29.71,SSW,193,3.0,-999.0,93,-99.99,,,0.00,0,weatherlink.com 1.10,2013-05-23 04:06:00,
2013-05-23 01:14:00,62.8,60.0,29.72,SSW,212,2.0,-999.0,89,-99.99,,,0.00,0,weatherlink.com 1.10,2013-05-23 05:14:00,
2013-05-23 01:22:00,62.7,60.0,29.72,SW,235,1.0,-999.0,89,-99.99,,,0.00,0,weatherlink.com 1.10,2013-05-23 05:22:00,
2013-05-23 01:37:00,62.3,59.0,29.72,SSW,202,3.0,-999.0,89,-99.99,,,0.00,0,weatherlink.com 1.10,2013-05-23 05:37:00,
2013-05-23 01:52:00,62.1,59.0,29.72,SW,232,3.0,-999.0,90,-99.99,,,0.00,0,weatherlink.com 1.10,2013-05-23 05:52:00,
2013-05-23 02:07:00,61.7,59.0,29.72,SW,216,2.0,-999.0,90,-99.99,,,0.00,0,weatherlink.com 1.10,2013-05-23 06:07:00,
2013-05-23 02:22:00,61.6,59.0,29.72,SSW,204,4.0,-999.0,90,-99.99,,,0.00,0,weatherlink.com 1.10,2013-05-23 06:22:00,
2013-05-23 02:37:00,61.4,59.0,29.72,WSW,237,6.0,-999.0,91,-99.99,,,0.00,0,weatherlink.com 1.10,2013-05-23 06:37:00,
2013-05-23 02:52:00,61.2,58.0,29.72,SW,234,3.0,-999.0,90,-99.99,,,0.00,0,weatherlink.com 1.10,2013-05-23 06:52:00,
2013-05-23 03:07:00,60.9,58.0,29.72,SW,218,2.0,-999.0,91,-99.99,,,0.00,0,weatherlink.com 1.10,2013-05-23 07:07:00,
2013-05-23 03:22:00,60.4,58.0,29.72,SW,218,3.0,-999.0,91,-99.99,,,0.00,0,weatherlink.com 1.10,2013-05-23 07:22:00,
2013-05-23 03:37:00,60.2,58.0,29.72,WSW,254,2.0,-999.0,92,-99.99,,,0.00,0,weatherlink.com 1.10,2013-05-23 07:37:00,
2013-05-23 03:52:00,60.0,57.0,29.72,SW,229,3.0,-999.0,91,-99.99,,,0.00,0,weatherlink.com 1.10,2013-05-23 07:52:00,
2013-05-23 04:07:00,59.5,57.0,29.72,SW,235,0.0,-999.0,91,-99.99,,,0.00,0,weatherlink.com 1.10,2013-05-23 08:07:00,
2013-05-23 04:22:00,59.2,57.0,29.73,SSW,209,4.0,-999.0,92,-99.99,,,0.00,0,weatherlink.com 1.10,2013-05-23 08:22:00,
2013-05-23 04:37:00,59.3,57.0,29.73,SSW,207,3.0,-999.0,93,-99.99,,,0.00,0,weatherlink.com 1.10,2013-05-23 08:37:00,
2013-05-23 04:52:00,59.3,57.0,29.74,SSW,203,3.0,-999.0,93,-99.99,,,0.00,0,weatherlink.com 1.10,2013-05-23 08:52:00,
2013-05-23 05:07:00,59.7,58.0,29.74,SW,231,3.0,-999.0,93,-99.99,,,0.00,0,weatherlink.com 1.10,2013-05-23 09:07:00,
2013-05-23 05:22:00,59.8,58.0,29.74,WSW,256,4.0,-999.0,92,-99.99,,,0.00,0,weatherlink.com 1.10,2013-05-23 09:22:00,
2013-05-23 05:37:00,60.0,57.0,29.74,WSW,237,1.0,-999.0,91,-99.99,,,0.00,0,weatherlink.com 1.10,2013-05-23 09:37:00,
2013-05-23 05:52:00,60.0,57.0,29.75,SW,226,2.0,-999.0,90,-99.99,,,0.00,0,weatherlink.com 1.10,2013-05-23 09:52:00,
2013-05-23 06:07:00,60.2,57.0,29.75,West,265,5.0,-999.0,89,-99.99,,,0.00,0,weatherlink.com 1.10,2013-05-23 10:07:00,
2013-05-23 06:22:00,60.2,57.0,29.75,SSW,193,6.0,-999.0,89,-99.99,,,0.00,0,weatherlink.com 1.10,2013-05-23 10:22:00,
2013-05-23 06:37:00,60.2,57.0,29.75,SW,231,3.0,-999.0,88,-99.99,,,0.00,9,weatherlink.com 1.10,2013-05-23 10:37:00,
2013-05-23 06:52:00,60.2,57.0,29.75,West,270,7.0,-999.0,88,-99.99,,,0.00,18,weatherlink.com 1.10,2013-05-23 10:52:00,
2013-05-23 07:07:00,60.0,57.0,29.76,SW,216,5.0,-999.0,88,-99.99,,,0.00,25,weatherlink.com 1.10,2013-05-23 11:07:00,
2013-05-23 07:22:00,60.0,57.0,29.77,WSW,237,4.0,-999.0,89,-99.99,,,0.00,76,weatherlink.com 1.10,2013-05-23 11:22:00,
2013-05-23 07:37:00,60.3,57.0,29.77,WSW,241,7.0,-999.0,89,-99.99,,,0.00,62,weatherlink.com 1.10,2013-05-23 11:37:00,
2013-05-23 07:52:00,60.5,57.0,29.78,SW,221,5.0,-999.0,88,-99.99,,,0.00,69,weatherlink.com 1.10,2013-05-23 11:52:00,
2013-05-23 08:07:00,60.6,57.0,29.78,WSW,244,9.0,-999.0,88,-99.99,,,0.00,62,weatherlink.com 1.10,2013-05-23 12:07:00,
2013-05-23 08:22:00,60.7,57.0,29.78,SW,221,4.0,-999.0,88,-99.99,,,0.00,86,weatherlink.com 1.10,2013-05-23 12:22:00,
2013-05-23 08:37:00,60.8,57.0,29.78,SW,216,4.0,-999.0,88,-99.99,,,0.00,63,weatherlink.com 1.10,2013-05-23 12:37:00,
2013-05-23 08:52:00,60.8,57.0,29.79,SW,236,8.0,-999.0,88,-99.99,,,0.00,69,weatherlink.com 1.10,2013-05-23 12:52:00,
2013-05-23 09:07:00,60.7,58.0,29.79,SSW,213,15.0,-999.0,89,-99.99,,,0.00,46,weatherlink.com 1.10,2013-05-23 13:07:00,
2013-05-23 09:22:00,59.5,58.0,29.80,WSW,251,9.0,-999.0,93,-99.99,,,0.00,105,weatherlink.com 1.10,2013-05-23 13:22:00,
2013-05-23 09:37:00,59.5,58.0,29.80,SW,221,9.0,-999.0,93,-99.99,,,0.00,72,weatherlink.com 1.10,2013-05-23 13:37:00,
2013-05-23 09:52:00,60.0,58.0,29.81,South,181,4.0,-999.0,93,-99.99,,,0.00,149,weatherlink.com 1.10,2013-05-23 13:52:00,
2013-05-23 10:07:00,59.9,58.0,29.81,SW,229,8.0,-999.0,93,-99.99,,,0.01,97,weatherlink.com 1.10,2013-05-23 14:07:00,
2013-05-23 10:22:00,59.5,58.0,29.81,West,260,6.0,-999.0,94,-99.99,,,0.06,127,weatherlink.com 1.10,2013-05-23 14:22:00,
2013-05-23 10:37:00,57.8,56.0,29.82,NW,321,6.0,-999.0,93,-99.99,,,0.06,100,weatherlink.com 1.10,2013-05-23 14:37:00,
2013-05-23 10:52:00,56.6,55.0,29.83,West,268,9.0,-999.0,93,-99.99,,,0.06,125,weatherlink.com 1.10,2013-05-23 14:52:00,
2013-05-23 11:07:00,56.4,55.0,29.83,WSW,251,6.0,-999.0,94,-99.99,,,0.06,239,weatherlink.com 1.10,2013-05-23 15:07:00,
2013-05-23 11:22:00,56.2,54.0,29.84,WNW,285,9.0,-999.0,92,-99.99,,,0.06,271,weatherlink.com 1.10,2013-05-23 15:22:00,
2013-05-23 11:37:00,56.3,54.0,29.84,West,278,8.0,-999.0,92,-99.99,,,0.06,306,weatherlink.com 1.10,2013-05-23 15:37:00,
2013-05-23 11:52:00,56.4,54.0,29.84,West,268,7.0,-999.0,92,-99.99,,,0.06,381,weatherlink.com 1.10,2013-05-23 15:52:00,
2013-05-23 12:07:00,56.5,54.0,29.85,West,278,7.0,-999.0,90,-99.99,,,0.06,274,weatherlink.com 1.10,2013-05-23 16:07:00,
2013-05-23 12:21:00,55.9,53.0,29.86,WNW,297,13.0,-999.0,90,-99.99,,,0.06,288,weatherlink.com 1.10,2013-05-23 16:21:00,
2013-05-23 12:36:00,56.0,53.0,29.86,NW,304,17.0,-999.0,88,-99.99,,,0.06,533,weatherlink.com 1.10,2013-05-23 16:36:00,
2013-05-23 12:51:00,54.2,51.0,29.87,WNW,303,10.0,-999.0,90,-99.99,,,0.06,267,weatherlink.com 1.10,2013-05-23 16:51:00,
2013-05-23 13:06:00,53.3,51.0,29.87,West,272,13.0,-999.0,90,-99.99,,,0.06,487,weatherlink.com 1.10,2013-05-23 17:06:00,
2013-05-23 13:21:00,54.5,51.0,29.88,WNW,289,8.0,-999.0,88,-99.99,,,0.06,439,weatherlink.com 1.10,2013-05-23 17:21:00,
2013-05-23 13:36:00,54.4,51.0,29.88,WNW,303,7.0,-999.0,87,-99.99,,,0.06,367,weatherlink.com 1.10,2013-05-23 17:36:00,
2013-05-23 13:51:00,55.2,51.0,29.88,WNW,285,8.0,-999.0,86,-99.99,,,0.06,422,weatherlink.com 1.10,2013-05-23 17:51:00,
2013-05-23 14:06:00,55.5,51.0,29.89,WNW,289,11.0,-999.0,85,-99.99,,,0.07,482,weatherlink.com 1.10,2013-05-23 18:06:00,
2013-05-23 14:21:00,53.8,49.0,29.89,South,189,7.0,-999.0,85,-99.99,,,0.07,378,weatherlink.com 1.10,2013-05-23 18:21:00,
2013-05-23 14:36:00,54.3,50.0,29.89,NW,326,5.0,-999.0,86,-99.99,,,0.07,671,weatherlink.com 1.10,2013-05-23 18:36:00,
2013-05-23 14:51:00,54.2,50.0,29.90,NW,325,13.0,-999.0,84,-99.99,,,0.07,427,weatherlink.com 1.10,2013-05-23 18:51:00,
2013-05-23 15:06:00,53.0,49.0,29.91,NNW,333,12.0,-999.0,86,-99.99,,,0.07,369,weatherlink.com 1.10,2013-05-23 19:06:00,
2013-05-23 15:21:00,52.7,49.0,29.92,NNW,339,9.0,-999.0,87,-99.99,,,0.07,236,weatherlink.com 1.10,2013-05-23 19:21:00,
2013-05-23 15:36:00,52.7,49.0,29.93,NNW,342,9.0,-999.0,87,-99.99,,,0.07,223,weatherlink.com 1.10,2013-05-23 19:36:00,
2013-05-23 15:51:00,53.2,50.0,29.93,NW,319,7.0,-999.0,87,-99.99,,,0.07,209,weatherlink.com 1.10,2013-05-23 19:51:00,
2013-05-23 16:06:00,53.3,49.0,29.94,NNW,347,8.0,-999.0,86,-99.99,,,0.07,165,weatherlink.com 1.10,2013-05-23 20:06:00,
2013-05-23 16:21:00,53.2,50.0,29.95,NNW,341,14.0,-999.0,87,-99.99,,,0.07,123,weatherlink.com 1.10,2013-05-23 20:21:00,
2013-05-23 16:36:00,53.0,49.0,29.95,NNW,344,8.0,-999.0,87,-99.99,,,0.07,104,weatherlink.com 1.10,2013-05-23 20:36:00,
2013-05-23 16:51:00,52.8,49.0,29.96,NW,317,6.0,-999.0,88,-99.99,,,0.07,77,weatherlink.com 1.10,2013-05-23 20:51:00,
2013-05-23 17:06:00,52.2,49.0,29.97,NNW,337,8.0,-999.0,88,-99.99,,,0.07,70,weatherlink.com 1.10,2013-05-23 21:06:00,
2013-05-23 17:21:00,51.8,49.0,29.97,NNW,330,11.0,-999.0,89,-99.99,,,0.07,113,weatherlink.com 1.10,2013-05-23 21:21:00,
2013-05-23 17:36:00,51.1,49.0,29.99,NW,315,10.0,-999.0,91,-99.99,,,0.07,98,weatherlink.com 1.10,2013-05-23 21:36:00,
2013-05-23 17:51:00,50.9,48.0,29.99,North,10,7.0,-999.0,91,-99.99,,,0.07,97,weatherlink.com 1.10,2013-05-23 21:51:00,
2013-05-23 18:06:00,51.1,48.0,30.00,NNW,327,17.0,-999.0,90,-99.99,,,0.07,90,weatherlink.com 1.10,2013-05-23 22:06:00,
2013-05-23 18:21:00,51.2,49.0,30.00,NNW,332,8.0,-999.0,91,-99.99,,,0.07,81,weatherlink.com 1.10,2013-05-23 22:21:00,
2013-05-23 18:36:00,51.7,49.0,30.01,NW,305,7.0,-999.0,90,-99.99,,,0.07,65,weatherlink.com 1.10,2013-05-23 22:36:00,
2013-05-23 18:51:00,51.9,49.0,30.01,North,354,8.0,-999.0,90,-99.99,,,0.07,49,weatherlink.com 1.10,2013-05-23 22:51:00,
2013-05-23 19:06:00,51.8,49.0,30.02,North,354,15.0,-999.0,89,-99.99,,,0.07,54,weatherlink.com 1.10,2013-05-23 23:06:00,
2013-05-23 19:21:00,52.1,49.0,30.03,NNW,339,9.0,-999.0,89,-99.99,,,0.07,33,weatherlink.com 1.10,2013-05-23 23:21:00,
2013-05-23 19:36:00,51.3,48.0,30.04,North,4,7.0,-999.0,89,-99.99,,,0.07,16,weatherlink.com 1.10,2013-05-23 23:36:00,
2013-05-23 19:51:00,50.9,48.0,30.05,North,349,6.0,-999.0,89,-99.99,,,0.07,28,weatherlink.com 1.10,2013-05-23 23:51:00,
2013-05-23 20:07:00,50.8,48.0,30.06,NW,325,8.0,-999.0,89,-99.99,,,0.07,18,weatherlink.com 1.10,2013-05-24 00:07:00,
2013-05-23 20:22:00,50.2,47.0,30.07,NNW,344,8.0,-999.0,89,-99.99,,,0.07,12,weatherlink.com 1.10,2013-05-24 00:22:00,
2013-05-23 20:37:00,49.9,47.0,30.08,NW,325,8.0,-999.0,89,-99.99,,,0.07,5,weatherlink.com 1.10,2013-05-24 00:37:00,
2013-05-23 20:52:00,49.5,46.0,30.09,North,354,7.0,-999.0,88,-99.99,,,0.07,5,weatherlink.com 1.10,2013-05-24 00:52:00,
2013-05-23 21:07:00,49.4,46.0,30.09,NNW,330,6.0,-999.0,88,-99.99,,,0.07,0,weatherlink.com 1.10,2013-05-24 01:07:00,
2013-05-23 21:22:00,49.1,46.0,30.10,NNW,336,9.0,-999.0,89,-99.99,,,0.07,0,weatherlink.com 1.10,2013-05-24 01:22:00,
2013-05-23 21:37:00,48.8,46.0,30.10,NNW,327,8.0,-999.0,89,-99.99,,,0.07,0,weatherlink.com 1.10,2013-05-24 01:37:00,
2013-05-23 21:52:00,48.8,45.0,30.11,NNW,335,10.0,-999.0,88,-99.99,,,0.07,0,weatherlink.com 1.10,2013-05-24 01:52:00,
2013-05-23 22:07:00,48.6,45.0,30.12,NW,312,6.0,-999.0,88,-99.99,,,0.07,0,weatherlink.com 1.10,2013-05-24 02:07:00,
2013-05-23 22:22:00,48.5,46.0,30.13,NW,322,8.0,-999.0,89,-99.99,,,0.07,0,weatherlink.com 1.10,2013-05-24 02:22:00,
2013-05-23 22:37:00,48.2,45.0,30.14,NW,320,8.0,-999.0,88,-99.99,,,0.07,0,weatherlink.com 1.10,2013-05-24 02:37:00,
2013-05-23 22:52:00,47.8,45.0,30.14,North,359,6.0,-999.0,89,-99.99,,,0.07,0,weatherlink.com 1.10,2013-05-24 02:52:00,
2013-05-23 23:07:00,47.3,44.0,30.15,NW,304,5.0,-999.0,88,-99.99,,,0.07,0,weatherlink.com 1.10,2013-05-24 03:07:00,
2013-05-23 23:22:00,46.7,44.0,30.15,NNW,335,5.0,-999.0,89,-99.99,,,0.07,0,weatherlink.com 1.10,2013-05-24 03:22:00,
2013-05-23 23:37:00,46.2,43.0,30.15,WNW,297,10.0,-999.0,89,-99.99,,,0.07,0,weatherlink.com 1.10,2013-05-24 03:37:00,
2013-05-23 23:52:00,46.0,43.0,30.15,NNW,333,6.0,-999.0,89,-99.99,,,0.07,0,weatherlink.com 1.10,2013-05-24 03:52:00,